Date,TemperatureHighF,TemperatureAvgF,TemperatureLowF,DewpointHighF,DewpointAvgF,DewpointLowF,HumidityHigh,HumidityAvg,HumidityLow,PressureMaxIn,PressureMinIn,WindSpeedMaxMPH,WindSpeedAvgMPH,GustSpeedMaxMPH,PrecipitationSumIn
2013-4-1,79,60,42,-100,-100,-100,0,0,100,0.00,40.00,13,4,22,0.00
2013-4-2,73,64,52,-100,-100,-100,0,0,100,0.00,40.00,14,9,22,0.00
2013-4-3,71,61,50,-100,-100,-100,0,0,100,0.00,40.00,9,6,15,0.00
2013-4-4,61,56,51,-100,-100,-100,0,0,100,0.00,40.00,15,5,22,0.00
2013-4-5,67,58,52,-100,-100,-100,0,0,100,0.00,40.00,22,12,37,0.00
2013-4-6,61,56,52,-100,-100,-100,0,0,100,0.00,40.00,20,10,36,0.00
2013-4-7,60,52,46,-100,-100,-100,0,0,100,0.00,40.00,25,13,43,0.00
2013-4-8,60,50,42,-100,-100,-100,0,0,100,0.00,40.00,12,6,17,0.00
2013-4-9,64,51,37,-100,-100,-100,0,0,100,0.00,40.00,10,4,20,0.00
2013-4-10,69,59,53,-100,-100,-100,0,0,100,0.00,40.00,24,13,41,0.00
2013-4-11,62,52,43,-100,-100,-100,0,0,100,0.00,40.00,14,9,27,0.00
2013-4-12,61,50,40,-100,-100,-100,0,0,100,0.00,40.00,20,6,35,0.00
2013-4-13,58,51,42,-100,-100,-100,0,0,100,0.00,40.00,20,15,35,0.00
2013-4-15,55,51,46,-100,-100,-100,0,0,100,0.00,40.00,14,8,27,0.00
2013-4-16,56,46,37,-100,-100,-100,0,0,100,0.00,40.00,10,7,21,0.00
2013-4-17,62,48,33,-100,-100,-100,0,0,100,0.00,40.00,7,3,13,0.00
2013-4-18,65,56,46,-100,-100,-100,0,0,100,0.00,40.00,13,6,22,0.00
2013-4-19,64,56,52,-100,-100,-100,0,0,100,0.00,40.00,17,14,29,0.00
2013-4-20,66,57,49,-100,-100,-100,0,0,100,0.00,40.00,18,11,31,0.00
2013-4-21,66,55,45,-100,-100,-100,0,0,100,0.00,40.00,14,7,27,0.00
2013-4-22,62,51,40,-100,-100,-100,0,0,100,0.00,40.00,8,5,17,0.00
2013-4-23,67,54,37,-100,-100,-100,0,0,100,0.00,40.00,6,3,12,0.00
2013-4-24,72,56,38,-100,-100,-100,0,0,100,0.00,40.00,7,4,12,0.00
2013-4-25,80,65,48,-100,-100,-100,0,0,100,0.00,40.00,8,4,15,0.00
2013-4-26,84,71,57,-100,-100,-100,0,0,100,0.00,40.00,12,6,16,0.00
2013-4-27,76,67,60,-100,-100,-100,0,0,100,0.00,40.00,20,11,35,0.00
2013-4-28,70,61,48,-100,-100,-100,0,0,100,0.00,40.00,20,9,35,0.00
2013-4-29,63,59,49,-100,-100,-100,0,0,100,0.00,40.00,23,15,38,0.00
2013-4-30,60,50,40,-100,-100,-100,0,0,100,0.00,40.00,10,6,17,0.00